Погода в Сокотре

Йемен     12°26′49″N   53°53′44″E
темп.,
°C
ветер,
м/с
пор.,
м/с
влажн.,
%
обл.,
%
осадки,
мм/ч
давл.,
гПа
погр.,
м
5 декабря, вс
вс500:00+20ссв33700 0.0 1017167
03:00+19ссв337230 0.0 101663
06:00+19ссв44710 0.0 1017100
09:00+24ссв664639 0.0 10181103
12:00+25ссв663852 0.0 10161324
15:00+24ссв67455 0.0 10141103
18:00+21св57600 0.0 1016451
21:00+20св46675 0.0 1017345
6 декабря, пн
пн600:00+19св347315 0.0 1016247
03:00+19св337668 0.0 101559
06:00+19св34761 0.0 101789
09:00+23св55523 0.0 10181380
12:00+25ссв65478 0.0 10161452
15:00+23ссв65520 0.0 10141146
18:00+21св57645 0.0 1016401
21:00+20св57675 0.0 1017340
7 декабря, вт
вт700:00+19ссв23732 0.0 1016134
03:00+19ссв22813 0.1 101648
06:00+19св33791 0.1 101768
09:00+24ссв55511 0.1 10181323
12:00+25с54475 0.0 10151383
15:00+23ссв66560 0.0 10141055
18:00+21ссв45665 0.0 1016343
21:00+20ссв457010 0.0 1017285
8 декабря, ср
ср800:00+19ссв347251 0.0 1016168
03:00+19ссв33775 0.0 101558
06:00+19ссв34755 0.0 1017100
09:00+23ссв67540 0.0 10181295
12:00+25ссв78470 0.0 10151317
15:00+23ссв67550 0.0 10141256
18:00+21ссв46699 0.0 1016416
21:00+20св56662 0.0 1017362
9 декабря, чт
чт900:00+19ссв35710 0.0 1016208
03:00+19ссв34838 0.1 101598
06:00+20ссв467319 0.3 1017270
09:00+24ссв675317 0.4 10181392
12:00+24ссв66499 0.0 10151388
15:00+23ссв66532 0.0 10141195
18:00+21ссв57631 0.0 1016473
21:00+20св56700 0.0 1017357